This is the latest recevied weather packets stored in our database for station/object JS2WAD-13. If no packets are shown the sender has not sent any weather packets the latest 10 day(s).
| Time | Temp. | Humidity | Pressure | Rain* | Wind** | Luminosity | Snow |
|---|---|---|---|---|---|---|---|
| 1778102778 | 17.22° C | 86% | 906.3 hPa | 0 mm | - | 30 W/m² | - |
| 1778102478 | 16.67° C | 85% | 906.2 hPa | 0 mm | - | 21 W/m² | - |
| 1778102178 | 16.67° C | 86% | 906.3 hPa | 0 mm | - | 18 W/m² | - |
| 1778101878 | 16.67° C | 86% | 906.4 hPa | 0 mm | - | 14 W/m² | - |
| 1778101578 | 16.67° C | 86% | 906.5 hPa | 0 mm | - | 21 W/m² | - |
| 1778101278 | 16.67° C | 88% | 906.3 hPa | 0 mm | - | 19 W/m² | - |
| 1778100978 | 16.67° C | 87% | 906.3 hPa | 0 mm | - | 16 W/m² | - |
| 1778100678 | 16.67° C | 86% | 906.3 hPa | 0 mm | - | 14 W/m² | - |
| 1778100378 | 16.67° C | 88% | 906.3 hPa | 0 mm | - | 18 W/m² | - |
| 1778100078 | 16.67° C | 87% | 906.4 hPa | 0 mm | - | 19 W/m² | - |
| 1778099778 | 16.67° C | 87% | 906.5 hPa | 0 mm | - | 19 W/m² | - |
| 1778099478 | 16.67° C | 87% | 906.4 hPa | 0 mm | - | 14 W/m² | - |
| 1778099178 | 16.11° C | 87% | 906.5 hPa | 0 mm | - | 11 W/m² | - |
| 1778098878 | 16.11° C | 86% | 906.4 hPa | 0 mm | - | 7 W/m² | - |
| 1778098578 | 16.11° C | 86% | 906 hPa | 0 mm | - | 5 W/m² | - |
| 1778098278 | 16.11° C | 86% | 906.2 hPa | 0 mm | - | 5 W/m² | - |
| 1778097979 | 16.11° C | 86% | 906.4 hPa | 0 mm | - | 0 W/m² | - |
| 1778097678 | 16.67° C | 87% | 906.3 hPa | 0 mm | - | 0 W/m² | - |
| 1778097378 | 16.67° C | 87% | 905.8 hPa | 0 mm | - | 0 W/m² | - |
| 1778097078 | 16.67° C | 87% | 906.2 hPa | 0 mm | - | 0 W/m² | - |
| 1778096779 | 16.67° C | 86% | 906.1 hPa | 0 mm | - | 0 W/m² | - |
| 1778096478 | 16.67° C | 86% | 906.4 hPa | 0 mm | - | 0 W/m² | - |
| 1778096178 | 16.67° C | 85% | 905.9 hPa | 0 mm | - | 0 W/m² | - |
| 1778095879 | 16.67° C | 85% | 906.5 hPa | 0 mm | - | 0 W/m² | - |
| 1778095579 | 16.67° C | 85% | 906.2 hPa | 0 mm | - | 0 W/m² | - |
* Rain latest hour (hover to see other rain measurements)
** Current wind speed in m/s (hover to see current wind gust speed)